Tracking 18840 objects as of 18-November-2017
HD Live streaming from Space Station
objects crossing your sky now

FENGYUN 1C DEB

Track FENGYUN 1C DEB now!
10-day predictions


NORAD ID: 37024
Int'l Code: 1999-025EDG
Perigee: 678.1 km
Apogee: 724.7 km
Inclination: 99.3 °
Period: 98.7 minutes
Semi major axis: 7072 km
RCS: 0.003 m2 (small)
Launch date: May 10, 1999
Source: People's Republic of China (PRC)
Launch site: Taiyaun Space Center, China (TSC)

Note: This is SATELLITE DEBRIS
aabbcc
Your satellite tracking list
Your tracking list is empty




NASA's NSSDC Master Catalog

Two Line Element Set (TLE):
1 37024U 99025EDG 17320.90039499 +.00003941 +00000-0 +83314-3 0  9996
2 37024 099.3426 338.5163 0032978 005.7314 354.4253 14.59659323198471
Source of the keplerian elements: AFSPC